Regional Weather Roundup
Issued by NWS Charleston, WV

Home | Current Version | Previous Version | Graphics & Text | Print | Product List | Glossary On
Versions: 1 2 3 4 5 6 7 8 9 10 11 12 13 14 15 16 17 18 19 20 21 22 23 24 25 26 27 28 29 30 31 32 33 34 35 36 37 38 39 40 41 42 43 44 45 46 47 48 49 50
000
ASUS41 KRLX 301910
RWRRLX
West Virginia Regional Weather Roundup
National Weather Service Charleston WV
300 PM EDT SAT MAY 30 2015

Note: "fair" indicates few or no clouds below 12,000 feet with no
significant weather and/or obstructions to visibility.

WVZ003-302000-
Northern Panhandle of West Virginia

CITY           SKY/WX    TMP DP  RH WIND       PRES   REMARKS
WHEELING       PTSUNNY   74  68  81 CALM      30.07F
$$

WVZ009-302000-
Northwest West Virginia

CITY           SKY/WX    TMP DP  RH WIND       PRES   REMARKS
PARKERSBURG    PTSUNNY   80  67  64 W6        30.09F
$$

WVZ006-302000-
Western West Virginia

CITY           SKY/WX    TMP DP  RH WIND       PRES   REMARKS
HUNTINGTON     MOSUNNY   85  62  46 SW10      30.06F
$$

WVZ015-302000-
West Central West Virginia

CITY           SKY/WX    TMP DP  RH WIND       PRES   REMARKS
CHARLESTON     MOSUNNY   83  64  52 S8        30.08F
$$

WVZ022-031-302000-
North Central West Virginia

CITY           SKY/WX    TMP DP  RH WIND       PRES   REMARKS
CLARKSBURG     SUNNY     81  67  62 SW9       30.10F
MORGANTOWN     SUNNY     82  62  50 SW8       30.11F
$$

WVZ025-035-042-045-302000-
Southern West Virginia

CITY           SKY/WX    TMP DP  RH WIND       PRES   REMARKS
BECKLEY        PTSUNNY   79  59  50 SE8       30.17F
LOGAN            N/A     84  61  45 VRB5G15   30.08F
BLUEFIELD      PTSUNNY   80  59  48 S8        30.21F
LEWISBURG      MOSUNNY   83  56  40 SW8       30.18F
$$

WVZ047-302000-
Northern Mountains of West Virginia

CITY           SKY/WX    TMP DP  RH WIND       PRES   REMARKS
ELKINS         CLOUDY    74  64  71 SW5       30.16F
$$

WVZ052-302000-
Eastern Panhandle of West Virginia

CITY           SKY/WX    TMP DP  RH WIND       PRES   REMARKS
MARTINSBURG    MOSUNNY   83  66  56 S10       30.10F
PETERSBURG     PTSUNNY   77  64  64 CALM      30.14F
$$


USA.gov is the U.S. government's official web portal to all federal, state and local government web resources and services.